When you browse on this site, cookies collect data to enhance your experience and personalize the content and advertising you see.
Visit our Privacy Policy to learn more. By continuing to use the site, you agree to this use of cookies and data.
  • In Romania
  • List of Countries
  • For 7 days
  • Water Temperature
  • Satellite Maps
  • Weather Map
  • Weather Widgets
  • user-avatar
    Login

    Hourly Weather Koscielec

    Today, 17 June, Monday

    Time Temperature Precipitation Wind Pressure Humidity
    00:00 +9°C° 0.3 mm 1 mps 599 mmHg 97%
    01:00 +9°C° 0.3 mm 1 mps 599 mmHg 98%
    02:00 +7°C° 0.6 mm 2 mps 599 mmHg 98%
    03:00 +7°C° 0.6 mm 2 mps 599 mmHg 98%
    04:00 +7°C° 0.6 mm 2 mps 599 mmHg 98%
    05:00 +7°C° 0.1 mm 2 mps 599 mmHg 97%
    06:00 +7°C° 0.1 mm 2 mps 599 mmHg 95%
    07:00 +7°C° 0.1 mm 2 mps 600 mmHg 94%
    08:00 +8°C° 0 mm 2 mps 600 mmHg 87%
    09:00 +9°C° 0 mm 2 mps 600 mmHg 80%
    10:00 +9°C° 0 mm 2 mps 601 mmHg 72%
    11:00 +9°C° 0.1 mm 2 mps 601 mmHg 72%
    12:00 +9°C° 0.1 mm 2 mps 601 mmHg 72%
    13:00 +9°C° 0.1 mm 2 mps 600 mmHg 72%
    14:00 +9°C° 0.2 mm 2 mps 600 mmHg 77%
    15:00 +8°C° 0.2 mm 2 mps 599 mmHg 82%
    16:00 +8°C° 0.2 mm 1 mps 599 mmHg 87%
    17:00 +8°C° 0.1 mm 1 mps 599 mmHg 88%
    18:00 +7°C° 0.1 mm 1 mps 599 mmHg 90%
    19:00 +7°C° 0.1 mm 1 mps 598 mmHg 92%
    20:00 +6°C° 0 mm 1 mps 598 mmHg 93%
    21:00 +6°C° 0 mm 1 mps 598 mmHg 94%
    22:00 +6°C° 0 mm 1 mps 598 mmHg 95%
    23:00 +5°C° 0 mm 1 mps 598 mmHg 95%

    Tomorrow, 18 June, Tuesday

    Time Temperature Precipitation Wind Pressure Humidity
    00:00 +5°C° 0 mm 1 mps 598 mmHg 95%
    01:00 +5°C° 0 mm 1 mps 598 mmHg 95%
    02:00 +5°C° 0 mm 1 mps 598 mmHg 96%
    03:00 +6°C° 0 mm 1 mps 598 mmHg 96%
    04:00 +6°C° 0 mm 1 mps 598 mmHg 97%
    05:00 +7°C° 0 mm 1 mps 598 mmHg 95%
    06:00 +7°C° 0 mm 1 mps 599 mmHg 94%
    07:00 +8°C° 0 mm 1 mps 599 mmHg 93%
    08:00 +10°C° 0.1 mm 1 mps 600 mmHg 87%
    09:00 +11°C° 0.1 mm 1 mps 600 mmHg 82%
    10:00 +12°C° 0.1 mm 1 mps 601 mmHg 76%
    11:00 +13°C° 0.6 mm 1 mps 601 mmHg 77%
    12:00 +13°C° 0.6 mm 1 mps 601 mmHg 78%
    13:00 +13°C° 0.6 mm 1 mps 600 mmHg 79%
    14:00 +13°C° 0.7 mm 1 mps 600 mmHg 81%
    15:00 +13°C° 0.7 mm 1 mps 600 mmHg 83%
    16:00 +13°C° 0.7 mm 1 mps 600 mmHg 85%
    17:00 +12°C° 0.6 mm 1 mps 599 mmHg 89%
    18:00 +11°C° 0.6 mm 1 mps 598 mmHg 92%
    19:00 +10°C° 0.6 mm 1 mps 598 mmHg 95%
    20:00 +10°C° 0.5 mm 1 mps 598 mmHg 95%
    21:00 +9°C° 0.5 mm 1 mps 597 mmHg 95%
    22:00 +8°C° 0.5 mm 1 mps 597 mmHg 95%
    23:00 +8°C° 0 mm 1 mps 597 mmHg 94%

    Day after tomorrow, 19 June, Wednesday

    Time Temperature Precipitation Wind Pressure Humidity
    00:00 +8°C° 0 mm 1 mps 597 mmHg 94%
    01:00 +8°C° 0 mm 1 mps 596 mmHg 93%
    02:00 +7°C° 0 mm 1 mps 596 mmHg 93%
    03:00 +7°C° 0 mm 1 mps 596 mmHg 93%
    04:00 +7°C° 0 mm 1 mps 596 mmHg 92%
    05:00 +9°C° 0 mm 1 mps 597 mmHg 88%
    06:00 +11°C° 0 mm 1 mps 598 mmHg 84%
    07:00 +13°C° 0 mm 1 mps 599 mmHg 80%
    08:00 +14°C° 0.5 mm 1 mps 599 mmHg 75%
    09:00 +15°C° 0.5 mm 1 mps 600 mmHg 69%
    10:00 +16°C° 0.5 mm 1 mps 600 mmHg 63%
    11:00 +16°C° 1.1 mm 1 mps 600 mmHg 67%
    12:00 +16°C° 1.1 mm 2 mps 599 mmHg 70%
    13:00 +15°C° 1.1 mm 2 mps 599 mmHg 74%
    14:00 +15°C° 0.5 mm 2 mps 599 mmHg 74%
    15:00 +14°C° 0.5 mm 1 mps 598 mmHg 75%
    16:00 +14°C° 0.5 mm 1 mps 598 mmHg 76%
    17:00 +13°C° 0.2 mm 1 mps 597 mmHg 79%
    18:00 +12°C° 0.2 mm 1 mps 597 mmHg 82%
    19:00 +10°C° 0.2 mm 0 mps 596 mmHg 85%
    20:00 +10°C° 0.1 mm 1 mps 596 mmHg 84%
    21:00 +10°C° 0.1 mm 1 mps 596 mmHg 84%
    22:00 +9°C° 0.1 mm 1 mps 596 mmHg 83%
    23:00 +9°C° 0.2 mm 1 mps 596 mmHg 84%

    20 June, Thursday

    Time Temperature Precipitation Wind Pressure Humidity
    00:00 +9°C° 0.2 mm 1 mps 595 mmHg 86%
    01:00 +8°C° 0.2 mm 1 mps 595 mmHg 87%
    02:00 +8°C° 0.2 mm 1 mps 595 mmHg 88%
    03:00 +8°C° 0.2 mm 1 mps 595 mmHg 90%
    04:00 +8°C° 0.2 mm 1 mps 595 mmHg 91%
    05:00 +9°C° 0.1 mm 0 mps 596 mmHg 89%
    06:00 +10°C° 0.1 mm 0 mps 597 mmHg 88%
    07:00 +11°C° 0.1 mm 0 mps 598 mmHg 86%
    08:00 +13°C° 0.8 mm 1 mps 598 mmHg 82%
    09:00 +15°C° 0.8 mm 1 mps 599 mmHg 77%
    10:00 +16°C° 0.8 mm 1 mps 599 mmHg 72%
    11:00 +16°C° 0.9 mm 1 mps 599 mmHg 69%
    12:00 +18°C° 0.9 mm 1 mps 599 mmHg 66%
    13:00 +17°C° 0.9 mm 2 mps 600 mmHg 62%
    14:00 +16°C° 1.3 mm 1 mps 599 mmHg 69%
    15:00 +15°C° 1.3 mm 1 mps 599 mmHg 75%
    16:00 +15°C° 1.3 mm 1 mps 598 mmHg 81%
    17:00 +14°C° 0.3 mm 1 mps 598 mmHg 84%
    18:00 +13°C° 0.3 mm 1 mps 597 mmHg 87%
    19:00 +11°C° 0.3 mm 0 mps 597 mmHg 90%
    20:00 +11°C° 0 mm 1 mps 597 mmHg 91%
    21:00 +10°C° 0 mm 1 mps 596 mmHg 92%
    22:00 +9°C° 0 mm 1 mps 596 mmHg 93%
    23:00 +9°C° 0 mm 1 mps 596 mmHg 93%

    21 June, Friday

    Time Temperature Precipitation Wind Pressure Humidity
    00:00 +8°C° 0 mm 1 mps 596 mmHg 92%
    01:00 +8°C° 0 mm 1 mps 596 mmHg 92%
    02:00 +8°C° 0 mm 1 mps 595 mmHg 92%
    03:00 +8°C° 0 mm 1 mps 595 mmHg 92%
    04:00 +8°C° 0 mm 1 mps 595 mmHg 92%
    05:00 +9°C° 0 mm 1 mps 596 mmHg 88%
    06:00 +11°C° 0 mm 1 mps 597 mmHg 85%
    07:00 +13°C° 0 mm 1 mps 598 mmHg 81%
    08:00 +15°C° 0.2 mm 1 mps 599 mmHg 73%
    09:00 +16°C° 0.2 mm 1 mps 600 mmHg 64%
    10:00 +19°C° 0.2 mm 1 mps 600 mmHg 55%
    11:00 +19°C° 0.5 mm 1 mps 600 mmHg 58%
    12:00 +17°C° 0.5 mm 2 mps 600 mmHg 60%
    13:00 +17°C° 0.5 mm 2 mps 600 mmHg 63%
    14:00 +17°C° 0.2 mm 2 mps 599 mmHg 62%
    15:00 +16°C° 0.2 mm 2 mps 599 mmHg 61%
    16:00 +16°C° 0.2 mm 2 mps 599 mmHg 61%
    17:00 +15°C° 0.8 mm 1 mps 598 mmHg 70%
    18:00 +13°C° 0.8 mm 1 mps 597 mmHg 79%
    19:00 +12°C° 0.8 mm 1 mps 597 mmHg 88%
    20:00 +11°C° 0.3 mm 1 mps 596 mmHg 89%
    21:00 +10°C° 0.3 mm 1 mps 596 mmHg 89%
    22:00 +9°C° 0.3 mm 1 mps 596 mmHg 90%
    23:00 +9°C° 0 mm 1 mps 596 mmHg 90%

    22 June, Saturday

    Time Temperature Precipitation Wind Pressure Humidity
    00:00 +8°C° 0 mm 1 mps 596 mmHg 90%
    01:00 +8°C° 0 mm 1 mps 595 mmHg 90%
    02:00 +8°C° 0 mm 1 mps 595 mmHg 91%
    03:00 +8°C° 0 mm 1 mps 595 mmHg 91%
    04:00 +8°C° 0 mm 1 mps 595 mmHg 91%
    05:00 +9°C° 0 mm 1 mps 596 mmHg 87%
    06:00 +11°C° 0 mm 1 mps 597 mmHg 83%
    07:00 +13°C° 0 mm 1 mps 598 mmHg 78%
    08:00 +14°C° 0.6 mm 1 mps 598 mmHg 75%
    09:00 +15°C° 0.6 mm 1 mps 599 mmHg 71%
    10:00 +16°C° 0.6 mm 1 mps 599 mmHg 67%
    11:00 +18°C° 0.7 mm 1 mps 599 mmHg 63%
    12:00 +17°C° 0.7 mm 2 mps 599 mmHg 59%
    13:00 +18°C° 0.7 mm 2 mps 600 mmHg 55%
    14:00 +18°C° 0.2 mm 2 mps 599 mmHg 55%
    15:00 +18°C° 0.2 mm 2 mps 599 mmHg 55%
    16:00 +18°C° 0.2 mm 2 mps 599 mmHg 54%
    17:00 +16°C° 0.5 mm 2 mps 598 mmHg 64%
    18:00 +14°C° 0.5 mm 2 mps 597 mmHg 75%
    19:00 +12°C° 0.5 mm 1 mps 597 mmHg 85%
    20:00 +11°C° 0.1 mm 1 mps 596 mmHg 86%
    21:00 +10°C° 0.1 mm 1 mps 596 mmHg 87%
    22:00 +9°C° 0.1 mm 1 mps 595 mmHg 88%
    23:00 +8°C° 0 mm 1 mps 595 mmHg 88%
    Show more